IZ3LCH-13 Weather Reports


time (UTC)temp
C
wind
direction
speed
KPH
gust
KPH
rain 1hr
cm
rain 24hr
cm
rain mn
cm
humidity
%
barometer
mb
20260507124503 22 251 11.3 22.5 0.00 0.00 0.00 53 1011.9
20260507124003 22 240 9.7 24.1 0.00 0.00 0.00 54 1011.9
20260507123503 22 239 8.0 24.1 0.00 0.00 0.00 54 1012.0
20260507123003 22 244 9.7 24.1 0.00 0.00 0.00 55 1012.1
20260507122503 22 229 9.7 24.1 0.00 0.00 0.00 53 1012.1
20260507122004 21 213 8.0 24.1 0.00 0.00 0.00 55 1012.1
20260507121503 21 207 6.4 17.7 0.00 0.00 0.00 56 1012.0
20260507121003 21 203 8.0 17.7 0.00 0.00 0.00 52 1012.2
20260507120503 22 195 6.4 16.1 0.00 0.00 0.00 54 1011.9
20260507120005 22 176 8.0 16.1 0.00 0.00 0.00 54 1012.1
20260507115503 22 179 9.7 20.9 0.00 0.00 0.00 55 1012.0
20260507115003 21 210 11.3 20.9 0.00 0.00 0.00 54 1012.0
20260507114503 21 238 11.3 22.5 0.00 0.00 0.00 55 1012.2
20260507114003 21 238 9.7 22.5 0.00 0.00 0.00 54 1012.1
20260507113503 21 213 9.7 22.5 0.00 0.00 0.00 56 1012.1
20260507113004 21 205 9.7 22.5 0.00 0.00 0.00 55 1012.2
20260507112503 21 206 9.7 19.3 0.00 0.00 0.00 54 1012.4
20260507112003 21 205 8.0 19.3 0.00 0.00 0.00 55 1012.6
20260507111504 21 221 8.0 19.3 0.00 0.00 0.00 52 1012.4
20260507111003 21 223 9.7 19.3 0.00 0.00 0.00 52 1012.3
20260507110503 21 227 9.7 24.1 0.00 0.00 0.00 55 1012.4
20260507110003 21 228 9.7 24.1 0.00 0.00 0.00 54 1012.4
20260507105503 21 219 6.4 20.9 0.00 0.00 0.00 57 1012.6
20260507105003 20 204 6.4 24.1 0.00 0.00 0.00 57 1012.8
20260507104504 20 203 8.0 24.1 0.00 0.00 0.00 54 1012.7
20260507104003 20 214 11.3 24.1 0.00 0.00 0.00 56 1012.8
20260507103503 20 237 11.3 25.7 0.00 0.00 0.00 54 1012.9
20260507102503 20 221 9.7 22.5 0.00 0.00 0.00 57 1013.1
20260507102003 20 220 11.3 30.6 0.00 0.00 0.00 58 1012.9
20260507101503 20 217 12.9 30.6 0.00 0.00 0.00 55 1013.1
20260507101003 20 215 12.9 25.7 0.00 0.00 0.00 58 1013.1
20260507100503 20 227 14.5 27.4 0.00 0.00 0.00 59 1013.0
20260507100003 20 222 14.5 27.4 0.00 0.00 0.00 60 1013.0
20260507095503 20 203 11.3 27.4 0.00 0.00 0.00 62 1013.0
20260507095003 20 207 9.7 20.9 0.00 0.00 0.00 60 1013.1
20260507094503 20 208 9.7 20.9 0.00 0.00 0.00 61 1013.2
20260507094003 20 199 8.0 19.3 0.00 0.00 0.00 64 1012.8
20260507093503 20 201 8.0 19.3 0.00 0.00 0.00 63 1013.0
20260507093003 20 209 8.0 14.5 0.00 0.00 0.00 62 1013.2
20260507092503 20 223 8.0 19.3 0.00 0.00 0.00 63 1012.9
20260507092003 19 217 9.7 24.1 0.00 0.00 0.00 61 1012.9
20260507091503 20 228 8.0 24.1 0.00 0.00 0.00 60 1012.9
20260507091003 20 247 8.0 14.5 0.00 0.00 0.00 62 1012.8
20260507090503 19 230 9.7 24.1 0.00 0.00 0.00 62 1012.9
20260507090004 19 222 11.3 24.1 0.00 0.00 0.00 61 1012.7
20260507085503 18 216 8.0 22.5 0.00 0.00 0.00 66 1013.0
20260507085003 18 191 6.4 16.1 0.00 0.00 0.00 70 1013.0
20260507084503 18 188 6.4 16.1 0.00 0.00 0.00 70 1013.0
20260507084003 18 181 6.4 16.1 0.00 0.00 0.00 72 1013.0
20260507083503 18 183 8.0 16.1 0.00 0.00 0.00 76 1013.0
20260507083003 17 192 8.0 17.7 0.00 0.00 0.00 76 1012.9
20260507082503 17 199 8.0 17.7 0.00 0.00 0.00 78 1012.8
20260507082003 17 197 6.4 16.1 0.00 0.00 0.00 77 1013.1
20260507081503 17 182 6.4 12.9 0.00 0.00 0.00 78 1013.0
20260507081003 17 174 6.4 12.9 0.00 0.00 0.00 79 1012.8
20260507080503 17 171 6.4 14.5 0.00 0.00 0.00 79 1012.7
20260507075503 17 172 6.4 14.5 0.00 0.00 0.00 80 1012.6
20260507075003 17 167 6.4 14.5 0.00 0.00 0.00 81 1012.9
20260507074503 17 182 6.4 14.5 0.00 0.00 0.00 82 1012.8
20260507074003 17 204 6.4 12.9 0.00 0.00 0.00 83 1013.0
20260507073503 17 207 4.8 14.5 0.00 0.00 0.00 82 1012.8
20260507073003 17 212 4.8 14.5 0.00 0.00 0.00 83 1012.8
20260507072503 16 193 4.8 9.7 0.00 0.00 0.00 83 1012.6
20260507072003 16 178 3.2 9.7 0.00 0.00 0.00 85 1012.6
20260507071503 16 176 3.2 6.4 0.00 0.00 0.00 86 1012.6
20260507071003 16 169 3.2 6.4 0.00 0.00 0.00 86 1012.6
20260507070503 15 179 3.2 6.4 0.00 0.00 0.00 87 1012.3
20260507070006 15 192 4.8 6.4 0.00 0.00 0.00 87 1012.3
20260507065503 15 229 4.8 6.4 0.00 0.00 0.00 88 1012.3
20260507065003 15 218 3.2 6.4 0.00 0.00 0.00 88 1012.4
20260507064503 15 189 1.6 6.4 0.00 0.00 0.00 89 1012.5
20260507064003 15 212 1.6 6.4 0.00 0.00 0.00 89 1012.5
20260507063503 15 218 3.2 9.7 0.00 0.00 0.00 90 1012.3
20260507063003 14 68 1.6 9.7 0.00 0.00 0.00 91 1012.3
20260507062503 14 47 0.0 3.2 0.00 0.00 0.00 91 1012.1
20260507062003 14 47 0.0 3.2 0.00 0.00 0.00 91 1012.2
20260507061503 13 47 0.0 3.2 0.00 0.00 0.00 91 1012.2
20260507061003 13 47 0.0 3.2 0.00 0.00 0.00 91 1012.3
20260507060503 13 47 0.0 3.2 0.00 0.00 0.00 91 1012.5
20260507060003 13 47 0.0 3.2 0.00 0.00 0.00 91 1012.3
20260507055503 13 47 0.0 3.2 0.00 0.00 0.00 91 1012.2
20260507055003 13 47 0.0 3.2 0.00 0.00 0.00 91 1012.4
20260507054503 13 47 0.0 3.2 0.00 0.00 0.00 90 1012.2
20260507054003 13 47 0.0 3.2 0.00 0.00 0.00 90 1012.1
20260507053503 12 47 0.0 3.2 0.00 0.00 0.00 90 1012.0
20260507053004 12 47 0.0 3.2 0.00 0.00 0.00 90 1011.9
20260507052503 12 47 0.0 3.2 0.00 0.00 0.00 90 1011.8
20260507052003 12 47 0.0 3.2 0.00 0.00 0.00 90 1011.9
20260507051503 12 47 0.0 3.2 0.00 0.00 0.00 90 1011.8
20260507051003 12 47 0.0 3.2 0.00 0.00 0.00 90 1011.8
20260507050503 12 47 0.0 3.2 0.00 0.00 0.00 90 1011.7
20260507050003 12 47 0.0 3.2 0.00 0.00 0.00 90 1011.6
20260507045503 12 47 0.0 3.2 0.00 0.00 0.00 90 1011.7
20260507045003 12 47 0.0 3.2 0.00 0.00 0.00 90 1011.6
20260507044503 12 47 0.0 3.2 0.00 0.00 0.00 90 1011.5
20260507044003 12 47 0.0 3.2 0.00 0.00 0.00 90 1011.4
20260507043503 12 47 0.0 3.2 0.00 0.00 0.00 90 1011.4
20260507043003 12 47 0.0 3.2 0.00 0.00 0.00 90 1011.4
20260507042503 12 47 0.0 3.2 0.00 0.00 0.00 90 1011.4
20260507042003 12 47 0.0 3.2 0.00 0.00 0.00 90 1011.3
20260507041503 12 47 0.0 3.2 0.00 0.00 0.00 90 1011.3
20260507041003 12 47 0.0 3.2 0.00 0.00 0.00 90 1011.1
20260507040504 12 47 0.0 3.2 0.00 0.00 0.00 90 1011.1
20260507040003 12 47 0.0 3.2 0.00 0.00 0.00 90 1011.1
20260507035503 12 47 0.0 3.2 0.00 0.00 0.00 90 1011.1
20260507035003 11 47 0.0 3.2 0.00 0.00 0.00 90 1011.0
20260507034503 11 47 0.0 3.2 0.00 0.00 0.00 89 1011.1
20260507034003 11 47 0.0 3.2 0.00 0.00 0.00 89 1011.1
20260507033503 11 47 0.0 3.2 0.00 0.00 0.00 89 1010.9
20260507033003 12 47 0.0 3.2 0.00 0.00 0.00 89 1011.0
20260507032503 12 47 0.0 3.2 0.00 0.00 0.00 89 1010.9
20260507032003 12 47 0.0 3.2 0.00 0.03 0.00 89 1011.1
20260507031503 12 47 0.0 3.2 0.00 0.03 0.00 89 1011.0
20260507031003 12 47 0.0 3.2 0.00 0.03 0.00 89 1011.0
20260507030503 12 47 0.0 3.2 0.00 0.03 0.00 89 1010.8
20260507030003 12 47 0.0 3.2 0.00 0.03 0.00 89 1010.9
20260507025503 12 47 0.0 3.2 0.00 0.03 0.00 89 1011.0
20260507025003 11 47 0.0 3.2 0.00 0.03 0.00 89 1010.9
20260507024503 11 47 0.0 3.2 0.00 0.03 0.00 89 1010.8
20260507024003 11 47 0.0 3.2 0.00 0.03 0.00 89 1010.9
20260507023503 12 47 0.0 3.2 0.00 0.03 0.00 89 1010.9
20260507023003 12 47 0.0 3.2 0.00 0.03 0.00 89 1010.8
20260507022503 12 47 0.0 3.2 0.00 0.03 0.00 89 1010.9
20260507022003 12 47 0.0 3.2 0.00 0.03 0.00 89 1010.8
20260507021503 12 47 0.0 3.2 0.00 0.03 0.00 89 1010.8
20260507021003 12 47 0.0 3.2 0.00 0.03 0.00 89 1010.6
20260507020503 12 47 0.0 3.2 0.00 0.03 0.00 89 1010.7
20260507020003 12 47 0.0 3.2 0.00 0.03 0.00 89 1010.9
20260507015503 12 47 0.0 3.2 0.00 0.03 0.00 89 1010.6
20260507015003 12 47 0.0 3.2 0.00 0.03 0.00 89 1010.6
20260507014503 12 47 0.0 3.2 0.00 0.03 0.00 89 1010.5
20260507014003 12 47 0.0 3.2 0.00 0.03 0.00 89 1011.0
20260507013503 12 47 0.0 3.2 0.00 0.03 0.00 89 1011.0
20260507013003 12 47 0.0 3.2 0.00 0.03 0.00 89 1010.6
20260507012503 12 47 0.0 3.2 0.00 0.03 0.00 89 1010.5
20260507012003 12 47 0.0 3.2 0.00 0.03 0.00 89 1010.5
20260507011503 12 47 0.0 3.2 0.00 0.03 0.00 89 1010.5
20260507011003 13 47 0.0 3.2 0.00 0.03 0.00 89 1010.6
20260507010503 12 47 0.0 3.2 0.00 0.03 0.00 89 1010.6
20260507010003 12 47 0.0 3.2 0.00 0.03 0.00 89 1010.8
20260507005503 13 47 0.0 3.2 0.00 0.03 0.00 88 1010.4
20260507005003 13 47 0.0 3.2 0.00 0.03 0.00 88 1010.6
20260507004503 13 47 0.0 3.2 0.00 0.03 0.00 89 1010.7
20260507004003 13 47 0.0 3.2 0.00 0.03 0.00 89 1010.5
20260507003503 13 47 0.0 3.2 0.00 0.03 0.00 89 1010.8
20260507003003 13 47 0.0 3.2 0.00 0.03 0.00 88 1010.8
20260507002503 13 47 0.0 3.2 0.00 0.03 0.00 88 1010.6
20260507002003 13 47 0.0 3.2 0.00 0.03 0.00 88 1010.8
20260507001503 13 47 0.0 3.2 0.00 0.03 0.00 88 1010.5
20260507001003 13 47 0.0 3.2 0.00 0.03 0.00 88 1010.5
20260507000503 13 47 0.0 3.2 0.00 0.03 0.00 88 1010.7
20260507000003 13 47 0.0 3.2 0.00 0.03 0.00 88 1010.5
20260506235503 13 47 0.0 3.2 0.00 0.03 0.00 88 1010.7
20260506235003 13 47 0.0 3.2 0.00 0.03 0.00 88 1010.6
20260506234503 13 47 0.0 3.2 0.00 0.03 0.00 88 1010.3
20260506234003 13 47 0.0 3.2 0.00 0.03 0.00 88 1010.6
20260506233503 13 47 0.0 3.2 0.00 0.03 0.00 88 1010.6
20260506233003 13 47 0.0 3.2 0.00 0.03 0.00 88 1010.7
20260506232503 13 47 0.0 3.2 0.00 0.03 0.00 88 1010.8
20260506232003 13 47 0.0 3.2 0.00 0.03 0.00 88 1010.9
20260506231503 13 47 0.0 3.2 0.00 0.03 0.00 88 1010.8
20260506231003 13 47 0.0 3.2 0.00 0.03 0.00 88 1010.9
20260506230503 13 47 0.0 3.2 0.00 0.03 0.00 88 1010.6
20260506230003 13 47 0.0 3.2 0.00 0.03 0.00 88 1010.6
20260506225503 13 47 0.0 3.2 0.00 0.03 0.00 88 1010.6
20260506225003 13 47 0.0 3.2 0.00 0.03 0.00 88 1010.6
20260506224503 13 47 0.0 3.2 0.00 0.03 0.00 88 1010.6
20260506224003 13 47 0.0 3.2 0.00 0.03 0.00 88 1010.7
20260506223503 13 47 0.0 3.2 0.00 0.03 0.00 88 1010.6
20260506223003 13 47 0.0 3.2 0.00 0.03 0.00 88 1010.5
20260506222503 13 47 0.0 3.2 0.00 0.03 0.00 88 1010.4
20260506222003 13 47 0.0 3.2 0.00 0.03 0.00 88 1010.5
20260506221504 13 47 0.0 3.2 0.00 0.03 0.00 87 1010.5
20260506221003 13 47 0.0 3.2 0.00 0.03 0.00 87 1010.5
20260506220503 13 47 0.0 3.2 0.00 0.03 0.00 87 1010.6
20260506220003 14 47 0.0 3.2 0.00 0.03 0.00 87 1010.5
20260506215503 14 47 0.0 3.2 0.00 0.03 0.03 87 1010.6
20260506215003 14 47 0.0 3.2 0.00 0.03 0.03 87 1010.7
20260506214503 14 47 0.0 3.2 0.00 0.03 0.03 87 1010.5
20260506214003 14 47 0.0 3.2 0.00 0.03 0.03 87 1010.4
20260506213503 14 47 0.0 3.2 0.00 0.03 0.03 87 1010.4
20260506213003 14 47 0.0 3.2 0.00 0.03 0.03 87 1010.5
20260506212503 14 47 0.0 3.2 0.00 0.03 0.03 87 1010.5
20260506212003 14 47 0.0 3.2 0.00 0.03 0.03 87 1010.4
20260506211503 14 47 0.0 3.2 0.00 0.03 0.03 87 1010.6
20260506211003 14 47 0.0 3.2 0.00 0.03 0.03 87 1010.4
20260506210503 15 47 0.0 3.2 0.00 0.03 0.03 87 1010.3
20260506210003 15 47 0.0 3.2 0.00 0.03 0.03 87 1010.3
20260506205503 15 47 0.0 3.2 0.00 0.03 0.03 87 1010.4
20260506205003 15 47 0.0 3.2 0.00 0.03 0.03 87 1010.5
20260506204503 15 47 0.0 3.2 0.00 0.03 0.03 86 1010.0
20260506204003 15 47 0.0 3.2 0.00 0.03 0.03 86 1010.1
20260506203503 15 47 0.0 3.2 0.00 0.03 0.03 86 1010.1
20260506203003 15 47 0.0 3.2 0.00 0.03 0.03 86 1010.3
20260506202503 15 47 0.0 3.2 0.00 0.03 0.03 86 1010.2
20260506202003 15 47 0.0 3.2 0.00 0.03 0.03 86 1010.4
20260506201503 15 47 0.0 3.2 0.00 0.03 0.03 86 1010.1
20260506201003 15 47 0.0 3.2 0.00 0.03 0.03 86 1010.0
20260506200503 15 47 0.0 3.2 0.00 0.03 0.03 86 1010.0
20260506200003 15 47 0.0 3.2 0.00 0.03 0.03 85 1010.1
20260506195503 15 47 0.0 3.2 0.00 0.03 0.03 85 1010.2
20260506195003 15 47 0.0 3.2 0.00 0.03 0.03 85 1009.9
20260506194503 15 47 0.0 3.2 0.00 0.03 0.03 85 1009.9
20260506194003 15 47 0.0 3.2 0.00 0.03 0.03 85 1009.7
20260506193503 15 47 0.0 3.2 0.00 0.03 0.03 85 1009.4
20260506193003 15 47 0.0 3.2 0.00 0.03 0.03 85 1009.6
20260506192503 15 47 0.0 3.2 0.00 0.03 0.03 85 1009.5
20260506192003 16 47 0.0 3.2 0.00 0.03 0.03 85 1009.5
20260506191503 16 47 0.0 3.2 0.00 0.03 0.03 85 1009.5
20260506191003 16 47 0.0 3.2 0.00 0.03 0.03 85 1009.4
20260506190503 16 47 0.0 3.2 0.00 0.03 0.03 85 1009.3
20260506190004 16 47 0.0 3.2 0.00 0.03 0.03 85 1009.2
20260506185503 16 47 0.0 3.2 0.00 0.03 0.03 85 1009.3
20260506185003 16 47 0.0 3.2 0.00 0.03 0.03 84 1009.2
20260506184503 16 47 0.0 3.2 0.00 0.03 0.03 84 1009.2
20260506184003 16 47 0.0 3.2 0.00 0.03 0.03 84 1009.3
20260506183503 16 47 0.0 3.2 0.00 0.03 0.03 84 1009.1
20260506183003 16 47 0.0 3.2 0.00 0.03 0.03 84 1008.9
20260506182503 16 47 0.0 3.2 0.00 0.03 0.03 84 1008.9
20260506182003 16 47 0.0 3.2 0.00 0.03 0.03 84 1009.0
20260506181503 16 47 0.0 3.2 0.00 0.03 0.03 83 1008.7
20260506181003 16 47 0.0 3.2 0.00 0.03 0.03 83 1008.7
20260506180503 17 47 0.0 3.2 0.00 0.03 0.03 83 1008.6
20260506180004 17 47 0.0 3.2 0.00 0.03 0.03 83 1008.6
20260506175503 17 47 0.0 3.2 0.00 0.03 0.03 82 1008.5
20260506175003 17 47 0.0 3.2 0.00 0.03 0.03 82 1008.4
20260506174503 17 47 0.0 3.2 0.00 0.03 0.03 82 1008.4
20260506174003 17 47 0.0 3.2 0.00 0.03 0.03 82 1008.7
20260506173503 17 47 0.0 3.2 0.00 0.03 0.03 82 1008.8
20260506173003 17 47 0.0 3.2 0.00 0.03 0.03 82 1008.7
20260506172503 17 47 0.0 3.2 0.00 0.03 0.03 82 1008.8
20260506172003 17 47 0.0 3.2 0.00 0.03 0.03 82 1008.7
20260506171503 17 47 0.0 3.2 0.00 0.03 0.03 81 1008.5
20260506171003 17 47 0.0 3.2 0.00 0.03 0.03 81 1008.6
20260506170503 17 47 0.0 3.2 0.00 0.03 0.03 81 1008.3
20260506170003 17 47 0.0 3.2 0.00 0.03 0.03 81 1008.1
20260506165503 17 47 0.0 3.2 0.00 0.03 0.03 80 1008.5
20260506165003 17 47 0.0 3.2 0.00 0.03 0.03 80 1008.2
20260506164503 17 47 0.0 3.2 0.00 0.03 0.03 80 1008.4
20260506164003 17 47 0.0 3.2 0.00 0.03 0.03 80 1008.2
20260506163503 17 47 0.0 3.2 0.00 0.03 0.03 80 1008.4
20260506163003 17 47 0.0 3.2 0.00 0.03 0.03 80 1008.6
20260506162503 17 47 0.0 3.2 0.00 0.03 0.03 80 1008.5
20260506162003 17 47 0.0 3.2 0.00 0.03 0.03 79 1008.4
20260506161503 17 47 0.0 3.2 0.00 0.03 0.03 79 1008.6
20260506161003 18 47 0.0 3.2 0.00 0.03 0.03 78 1008.8
20260506160503 18 47 0.0 3.2 0.00 0.03 0.03 78 1008.7
20260506160003 18 75 1.6 12.9 0.00 0.03 0.03 77 1008.8
20260506155503 18 91 4.8 12.9 0.00 0.03 0.03 78 1008.4
20260506155003 18 102 6.4 14.5 0.00 0.03 0.03 77 1008.9
20260506154503 18 109 6.4 14.5 0.00 0.03 0.03 80 1008.6
20260506154003 18 109 6.4 11.3 0.00 0.03 0.03 81 1008.5
20260506153503 18 107 8.0 11.3 0.00 0.03 0.03 82 1008.8
20260506153003 18 106 8.0 9.7 0.00 0.03 0.03 82 1008.5
20260506152503 18 106 8.0 9.7 0.00 0.03 0.03 82 1008.6
20260506152003 18 106 8.0 9.7 0.00 0.03 0.03 82 1008.5
20260506151503 18 106 8.0 9.7 0.00 0.03 0.03 82 1008.6
20260506151003 17 104 8.0 12.9 0.00 0.03 0.03 82 1008.6
20260506150503 17 84 6.4 14.5 0.00 0.03 0.03 81 1008.5
20260506150003 17 55 6.4 14.5 0.00 0.03 0.03 81 1008.8
20260506145503 17 45 6.4 14.5 0.00 0.03 0.03 81 1008.8
20260506145003 17 46 6.4 11.3 0.00 0.03 0.03 82 1008.7
20260506144503 17 28 6.4 11.3 0.00 0.03 0.03 84 1008.7
20260506144003 17 3 8.0 8.0 0.00 0.03 0.03 84 1009.0
20260506143503 17 18 6.4 12.9 0.00 0.03 0.03 84 1009.0
20260506143003 17 37 6.4 12.9 0.00 0.03 0.03 84 1008.7
20260506142503 17 46 6.4 12.9 0.00 0.03 0.03 85 1009.0
20260506142003 17 42 6.4 14.5 0.00 0.03 0.03 85 1008.8
20260506141503 17 43 4.8 14.5 0.00 0.03 0.03 86 1008.9
20260506141003 17 52 4.8 9.7 0.00 0.03 0.03 86 1008.9
20260506140503 17 40 6.4 11.3 0.00 0.03 0.03 86 1008.9
20260506140003 17 37 6.4 11.3 0.00 0.03 0.03 87 1009.0
20260506135503 17 66 4.8 11.3 0.00 0.03 0.03 87 1009.0
20260506135003 17 82 4.8 11.3 0.00 0.03 0.03 87 1008.9
20260506134503 16 83 4.8 11.3 0.00 0.03 0.03 87 1009.1
20260506134003 16 83 4.8 11.3 0.00 0.03 0.03 87 1009.1
20260506133503 16 83 4.8 11.3 0.00 0.03 0.03 87 1009.2
20260506133003 16 83 4.8 11.3 0.00 0.03 0.03 87 1009.0
20260506132503 16 83 4.8 11.3 0.00 0.03 0.03 87 1009.1
20260506132003 16 83 4.8 11.3 0.00 0.03 0.03 87 1009.5
20260506131503 16 83 4.8 11.3 0.00 0.03 0.03 87 1009.1
20260506131003 16 83 4.8 11.3 0.00 0.03 0.03 87 1009.4
20260506130503 16 83 4.8 11.3 0.00 0.03 0.03 87 1009.3
20260506130003 16 83 4.8 11.3 0.00 0.03 0.03 86 1009.1
20260506125503 16 83 4.8 11.3 0.00 0.03 0.03 85 1009.2
20260506125003 16 83 4.8 11.3 0.00 0.03 0.03 84 1009.3